{"data":{"norad_id":59633,"epoch":"2026-05-25T04:31:54.567264Z","epoch_age_seconds":72793,"freshness":"FRESH","line1":"1 59633U 24082C   26145.18882601  .00000336  00000+0  21735-4 0  9997","line2":"2 59633  43.0005  60.6643 0000869 272.0844  87.9908 15.27574768116781","mean_motion":15.27574768,"eccentricity":8.69e-5,"inclination_deg":43.0005,"raan_deg":60.6643,"arg_perigee_deg":272.0844,"mean_anomaly_deg":87.9908,"bstar":2.1735e-5,"rev_number":11678,"period_min":94.267071580748,"perigee_km":482.4685241414,"apogee_km":483.66100100774,"semimajor_km":6861.2017625746,"source":"CELESTRAK","updated_at":"2026-05-25T13:38:19.012918Z"}}